AirNav   Bose A20 Aviation Headset
 
 313 users online  

N13 Bloomsburg Municipal Airport
Bloomsburg, Pennsylvania, USA

GOING TO BLOOMSBURG?


FAA INFORMATION EFFECTIVE 11 OCTOBER 2018

Location

FAA Identifier: N13
Lat/Long: 40-59-51.5420N / 076-26-06.8869W
40-59.859033N / 076-26.114782W
40.9976506 / -76.4352464
(estimated)
Elevation: 481.3 ft. / 146.7 m (surveyed)
Variation: 12W (2015)
Time zone: UTC -4 (UTC -5 during Standard Time)
Zip code: 17815

Airport Operations

Airport use: Open to the public
Control tower: no
ARTCC: NEW YORK CENTER
FSS: WILLIAMSPORT FLIGHT SERVICE STATION
NOTAMs facility: IPT (NOTAM-D service available)
Attendance: MON-FRI 0800-1400, ALL SAT-SUN IRREGULAR
FOR SVC AFT HRS CALL 570-317-1966.
Pattern altitude: 1581.3 ft. MSL
Wind indicator: yes
Segmented circle: no
Lights: ACTVT MIRL RWY 09/27- CTAF.
Beacon: white-green (lighted land airport)
Operates sunset to sunrise.
Landing fee: no, OVERNIGHT FEE WAIVED WITH FUEL PURCHASE.

Airport Communications

CTAF/UNICOM: 122.8
WILKES-BARRE APPROACH: 126.3
WILKES-BARRE DEPARTURE: 126.3
WX AWOS-3 at 79PN (8 nm W): 118.075 (570-271-8192)
WX AWOS-3 at N79 (11 nm SW): 119.175 (570-672-0389)
WX AWOS-3 at ZER (18 nm S): 127.575 (570-544-2778)
WX AWOS-3 at HZL (20 nm E): 119.975 (570-459-4901)

Nearby radio navigation aids

VOR radial/distance  VOR name  Freq  Var
MIPr107/10.5MILTON VORTAC109.2009W
SEGr067/23.8SELINSGROVE VOR/DME110.4008W
FQMr152/25.6WILLIAMSPORT VOR/DME114.4009W
RAVr027/27.7RAVINE VORTAC114.6011W
LVZr254/37.5WILKES-BARRE VORTAC111.6010W

 
NDB name  Hdg/Dist  Freq  Var  ID
BELLGROVE019/34.132810WBZJ -... --.. .---

Airport Services

Fuel available: 100LL
Parking: hangars
Airframe service: MAJOR
Powerplant service: MAJOR
Bottled oxygen: NONE
Bulk oxygen: NONE

Runway Information

Runway 9/27

Dimensions: 3200 x 60 ft. / 975 x 18 m
Surface: asphalt, in excellent condition
Weight bearing capacity: 
Single wheel: 12.5
Runway edge lights: medium intensity
RUNWAY 9  RUNWAY 27
Latitude: 40-59.798613N40-59.919452N
Longitude: 076-26.453282W076-25.776280W
Elevation: 481.2 ft.481.2 ft.
Gradient: 0.1%0.1%
Traffic pattern: leftleft
Runway heading: 089 magnetic, 077 true269 magnetic, 257 true
Markings: nonprecision, in good conditionnonprecision, in good condition
Touchdown point: yes, no lightsyes, no lights
Obstructions: 50 ft. trees, 836 ft. from runway, 177 ft. left of centerline, 12:1 slope to clearnone

Airport Ownership and Management from official FAA records

Ownership: Publicly-owned
Owner: TOWN OF BLOOMSBURG
BLOOMSBURG TOWN HALL
BLOOMSBURG, PA 17815-9588
Phone 570-784-7703
Manager: BJ TEICHMAN
301 AIRPORT ROAD
BLOOMSBURG, PA 17815-9588
Phone (570) 317-2481

Airport Operational Statistics

Aircraft based on the field: 22
Single engine airplanes: 20
Multi engine airplanes: 1
Helicopters: 1
    
Aircraft operations: avg 25/day *
72% local general aviation
28% transient general aviation
<1% military
* for 12-month period ending 29 August 2017

Additional Remarks

DEER AND GEESE INVOF RWY.
FOR CD CTC AVP APCH AT 570-655-2084.

Instrument Procedures

NOTE: All procedures below are presented as PDF files. If you need a reader for these files, you should download the free Adobe Reader.

NOT FOR NAVIGATION. Please procure official charts for flight.
FAA instrument procedures published for use from 11 October 2018 at 0901Z to 8 November 2018 at 0900Z.

 
IAPs - Instrument Approach Procedures
RNAV (GPS)-B   download (165KB)
VOR-A   download (166KB)
NOTE: Special Take-Off Minimums/Departure Procedures apply   download (212KB)

Other nearby airports with instrument procedures:

8N8 - Danville Airport (10 nm W)
N79 - Northumberland County Airport (11 nm SW)
KZER - Schuylkill County/Joe Zerbey Airport (18 nm S)
KHZL - Hazleton Regional Airport (20 nm E)
KSEG - Penn Valley Airport (22 nm SW)
 
Loc | Ops | Rwys | IFR | FBO | Links
Com | Nav | Svcs | Stats | Notes


 
Area around N13 (Bloomsburg Municipal Airport)
 
Road maps at: MapQuest Bing Google
 
Aerial photo
WARNING: Photo may not be current or correct
Aerial photo of N13 (Bloomsburg Municipal Airport)
Photo by Chris Lawler
Photo taken 01-Feb-2009

Do you have a better or more recent aerial photo of Bloomsburg Municipal Airport that you would like to share? If so, please send us your photo.

 
Sectional chart

 
Airport distance calculator
Flying to Bloomsburg Municipal Airport? Find the distance to fly.

From to N13

Sunrise and sunset
Times for 23-Oct-2018
 Local
(UTC-4)
 Zulu
(UTC)
Morning civil twilight06:5910:59
Sunrise07:2711:27
Sunset18:1322:13
Evening civil twilight18:4122:41

Current date and time
Zulu (UTC)  23-Oct-2018 08:01:29
Local (UTC-4)  23-Oct-2018 04:01:29
 
METAR
KHZL 
20nm E 
230756Z AUTO 16003KT 10SM OVC070 06/01 A3007 RMK AO2
KSEG 
22nm SW 
230753Z AUTO VRB03KT 10SM OVC080 08/03 A3006 RMK AO2 SLP181 T00780033
KIPT 
27nm NW 
230754Z AUTO 09007KT 10SM OVC080 08/03 A3003 RMK AO2 SLP172 T00780028
K22N 
33nm E 
230755Z AUTO 00000KT 10SM OVC085 04/03 A3010 RMK AO2
KMUI 
35nm S 
230756Z AUTO 00000KT 10SM OVC080 05/04 A3008 RMK AO2 SLP191 T00530038 $
KAVP 
38nm NE 
230754Z AUTO 00000KT 10SM OVC080 07/04 A3005 RMK AO2 SLP178 T00670039
TAF
KIPT 
27nm NW 
230556Z 2306/2406 00000KT P6SM BKN080 FM231400 23005KT P6SM BKN070 FM231700 25012G19KT P6SM BKN060 FM232000 29013G21KT P6SM BKN050 FM240200 30012KT P6SM SCT040
NOTAMs
Click for the latest NOTAMs
NOTAMs are issued by the DoD/FAA and will open in a separate window not controlled by AirNav.

 

 
 

FBO, Fuel Providers, and Aircraft Ground Support

  
 Business Name 
 
 Contact 
 
 Services / Description 
 
Fuel Prices
 
Comments
  
Town of Bloomsburg 570-317-2481
no information available

If you are affiliated with Town of Bloomsburg and would like to show here your services, contact info, web link, logo, and more, click here
100LL
AS $4.85 
 Updated 22-Oct-2018
 
   7 read write
AS=Assisted/Self Service
Update Fuel Prices
 

Would you like to see your business listed on this page?

 If your business provides an interesting product or service to pilots, flight crews, aircraft, or users of the Bloomsburg Municipal Airport, you should consider listing it here.  To start the listing process, click on the button below
 
Add a business
 

Other Pages about Bloomsburg Municipal Airport

bloomsburgpa.org/...
 
Update a link
 
Copyright © AirNav, LLC. All rights reserved. Privacy Policy  Contact